Miscellaneous Local Product
Issued by NWS Hastings, NE

Home | Current Version | Previous Version | Text Only | Print | Product List | Glossary On
Versions: 1 2 3 4 5 6 7 8 9 10 11 12 13 14 15 16 17 18 19 20 21 22 23 24 25 26 27 28 29 30 31 32 33 34 35 36 37 38 39 40 41 42 43 44 45 46 47 48 49 50
000
AXUS43 KGID 231502
MISGRI

GID CWA HOURLY WEATHER ROUNDUP
NATIONAL WEATHER SERVICE HASTINGS NE
1000 AM CDT SAT AUG 23 2014

NOTE: "FAIR" INDICATES FEW OR NO CLOUDS BELOW 12,000 FEET WITH NO
SIGNIFICANT WEATHER AND/OR OBSTRUCTIONS TO VISIBILITY.

...SOUTH CENTRAL NEBRASKA...

CITY           SKY/WX    TMP DP  RH WIND       PRES   REMARKS
GRAND ISLAND   CLOUDY    72  68  87 SE12      29.89S
HASTINGS       CLOUDY    72  66  81 SE14      29.87S
KEARNEY        CLOUDY    73  70  88 E14       29.87S
ORD            CLOUDY    69  66  90 E9        29.88S
YORK           MOSUNNY   73 N/A N/A SE12      29.89S
AURORA         PTSUNNY   73  72  94 SE13      29.89R
LEXINGTON      CLOUDY    71  69  95 SE8       29.86S FOG
HOLDREGE       CLOUDY    71  68  90 S9        29.86S
HEBRON         MOSUNNY   77  68  74 SE12G17   29.88S

...NEBRASKA PANHANDLE...

CITY           SKY/WX    TMP DP  RH WIND       PRES   REMARKS
CHADRON        CLOUDY    66  60  81 CALM      29.87F
ALLIANCE       CLOUDY    62  60  93 CALM      29.89F
SCOTTSBLUFF    CLOUDY    66  62  87 SW3       29.91S
SIDNEY         MOSUNNY   68  62  81 NW12      29.92R

...WESTERN AND NORTH CENTRAL NEBRASKA...

CITY           SKY/WX    TMP DP  RH WIND       PRES   REMARKS
VALENTINE      CLOUDY    69  67  93 SE13      29.86F
AINSWORTH      CLOUDY    69  67  94 SE9       29.89S
ONEILL         CLOUDY    69  68  97 E7        29.91S
BROKEN BOW     CLOUDY    69  66  90 E12       29.88F
IMPERIAL       PTSUNNY   70  65  84 E7        29.87S
NORTH PLATTE   CLOUDY    67  65  93 E10       29.88S
MCCOOK         PTSUNNY   70  66  87 CALM      29.86S

...EASTERN NEBRASKA...

CITY           SKY/WX    TMP DP  RH WIND       PRES   REMARKS
NORFOLK        PTSUNNY   71  67  87 E8        29.91R
SO SIOUX CITY  CLOUDY    74  69  85 E7        29.90S
TEKAMAH        CLOUDY    74  69  85 E5        29.89R
COLUMBUS       CLOUDY    72  66  83 SE9       29.91R
ALBION         PTSUNNY   69  67  92 E8        29.91S
OMAHA EPPLEY   CLOUDY    76  70  82 SE10      29.88R
OFFUTT AFB     CLOUDY    76  76  99 SE10      29.88S
MILLARD        CLOUDY    76  72  85 SE12      29.87F
LINCOLN        MOSUNNY   77  70  79 SE12      29.88F
NEBRASKA CITY  PTSUNNY   75  73  94 SE12      29.89F
BEATRICE       SUNNY     78  71  81 SE9       29.88S
FALLS CITY     SUNNY     80  74  81 SE8       29.88F

...NORTHERN KANSAS...

CITY           SKY/WX    TMP DP  RH WIND       PRES   REMARKS
GOODLAND       MOSUNNY   69  65  86 VRB3      29.90S
HILL CITY      SUNNY     77  65  66 S14       29.86S
NORTON         PTSUNNY   73  66  78 SE10      29.85F
PHILLIPSBURG   PTSUNNY   75  72  88 SE7       29.86S
SMITH CENTER   SUNNY     75  70  83 S10       29.87S
BELOIT         SUNNY     81  66  61 S9        29.86S
HAYS           SUNNY     79  64  61 S14       29.87F
RUSSELL        SUNNY     83  63  50 SW15      29.87R
CONCORDIA      SUNNY     80  66  62 S9        29.88S
SALINA         SUNNY     85  61  44 S9        29.88R
TOPEKA         SUNNY     84  68  58 S8        29.90F



USA.gov is the U.S. government's official web portal to all federal, state and local government web resources and services.